Location: Pilipovskiye Korichintsy
(49.1833°N, 27.4667°E)
Time: 01:29:48
(UTC+00:00)

Cosmos 1190 Rocket - Visible Passes

Search period start: 24 October 2020 00:00
Search period end: 03 November 2020 00:00
Orbit: 757 x 779 km, 74.1° (Epoch: 23 October)

Date Brightness Start Highest point End Pass type
(mag) Time Alt. Az. Time Alt. Az. Time Alt. Az.
24 Oct 7.2 03:33:18 10° SE 03:36:44 18° E 03:40:09 10° NE visible
24 Oct 6.8 15:37:31 10° NW 15:41:34 23° W 15:45:36 10° SSW visible
25 Oct 7.7 02:59:10 10° ESE 03:00:10 10° E 03:01:10 10° E visible
26 Oct 5.4 03:59:26 10° S 04:04:23 44° ESE 04:09:21 10° NE visible
27 Oct 6.3 03:23:14 10° SSE 03:27:38 28° E 03:32:02 10° NE visible
27 Oct 7.3 15:29:39 10° WNW 15:32:26 15° W 15:35:13 10° SW visible
28 Oct 6.9 02:47:37 10° SE 02:50:59 17° E 02:54:20 10° NE visible
29 Oct 7.4 02:13:45 10° E 02:14:25 10° E 02:15:06 10° E visible
29 Oct 4.4 03:50:16 10° SSW 03:55:29 71° ESE 04:00:41 10° NNE visible
30 Oct 5.2 03:13:42 10° S 03:18:37 44° ESE 03:23:34 10° NE visible
31 Oct 6.1 02:37:31 10° SSE 02:41:53 27° E 02:46:14 10° NE visible
31 Oct 4.2 04:18:38 10° SW 04:23:41 48° WNW 04:28:46 10° NNE visible
01 Nov 6.7 02:01:55 10° SE 02:05:14 17° E 02:08:31 10° NE visible
01 Nov 3.9 03:41:25 10° SSW 03:46:39 76° WNW 03:51:53 10° NNE visible
02 Nov 4.3 03:04:31 10° SSW 03:09:43 69° ESE 03:14:54 10° NNE visible
